Weather reports worldwide

Advertisment
Weihenstephan-Dürnast, Germany (10863): temperature & dewpoint: 06.11.2019 16:00:00 - 12.11.2019 16:00:00 (CET)Weihenstephan-Dürnast, Germany (10863): temperature 5cm & temperature -5cm: 06.11.2019 16:00:00 - 12.11.2019 16:00:00 (CET)Weihenstephan-Dürnast, Germany (10863): temperature -20cm & temperature -100cm: 06.11.2019 16:00:00 - 12.11.2019 16:00:00 (CET)Weihenstephan-Dürnast, Germany (10863): wind speed & gusts: 06.11.2019 16:00:00 - 12.11.2019 16:00:00 (CET)Weihenstephan-Dürnast, Germany (10863): wind direction: 06.11.2019 16:00:00 - 12.11.2019 16:00:00 (CET)Weihenstephan-Dürnast, Germany (10863): reduced air pressure: 06.11.2019 16:00:00 - 12.11.2019 16:00:00 (CET)Weihenstephan-Dürnast, Germany (10863): visibility: 06.11.2019 16:00:00 - 12.11.2019 16:00:00 (CET)Weihenstephan-Dürnast, Germany (10863): sunshine duration: 06.11.2019 16:00:00 - 12.11.2019 16:00:00 (CET)Weihenstephan-Dürnast, Germany (10863): precipitation: 06.11.2019 16:00:00 - 12.11.2019 16:00:00 (CET)
Date & Time tt [°C] td [°C] tt 5cm [°C] tt -5cm [°C] tt -20cm [°C] tt -100cm [°C] ff [km/h] ff [kn] fx [km/h] fx [kn] dd ppp [hPa] vv [km] sd [min] rr [mm]
12.11.2019 16:00:00 5,0 2,6 4,3 5,2 5,2 10,5 3 2 6 4 SSE 1007,7 51 0 0,0
12.11.2019 15:00:00 5,3 1,7 5,0 5,3 5,1 10,5 3 2 9 5 SSW 1007,6 56 0 0,0
12.11.2019 14:00:00 5,4 2,7 5,3 5,3 5,0 10,5 4 2 10 6 SSW 1008,4 37 0 0,0
12.11.2019 13:00:00 5,2 2,5 5,2 5,3 4,8 10,6 5 3 11 6 S 1008,8 39 0 0,0
12.11.2019 12:00:00 5,2 3,0 5,4 5,0 4,7 10,6 6 3 11 6 SSW 1009,2 29 0 0,0
12.11.2019 11:00:00 4,9 3,0 4,9 4,7 4,6 10,6 6 3 9 5 SSW 1010,5 25 0 0,0
12.11.2019 10:00:00 4,5 3,6 4,5 4,1 4,5 10,6 3 2 8 4 SSW 1010,7 18 0 0,0
12.11.2019 09:00:00 3,6 3,3 3,8 3,5 4,5 10,6 4 2 6 3 SSE 1011,4 7 0 0,0
12.11.2019 08:00:00 3,6 2,9 3,2 3,3 4,4 10,6 4 2 6 4 SSW 1011,4 12 0 0,0
12.11.2019 07:00:00 3,4 3,0 3,0 3,3 4,4 10,6 5 3 7 4 SW 1011,3 8 0 0,0
12.11.2019 06:00:00 3,3 2,7 2,9 3,2 4,4 10,7 3 2 7 4 SSW 1010,4 12 0 0,0
12.11.2019 05:00:00 3,3 2,7 2,9 3,1 4,4 10,7 5 3 12 6 S 1011,2 12 0 0,1
12.11.2019 04:00:00 3,2 2,6 2,8 3,1 4,4 10,7 7 4 11 6 SSW 1010,6 9 0 0,3
12.11.2019 03:00:00 3,0 2,2 2,7 3,0 4,4 10,7 4 2 11 6 SSW 1010,4 8 0 0,0
12.11.2019 02:00:00 2,7 2,1 2,4 2,8 4,4 10,7 4 2 11 6 SSE 1010,6 10 0 0,4
12.11.2019 01:00:00 1,9 1,6 1,9 2,7 4,4 10,7 7 4 14 8 SSE 1010,8 3,3 0 0,7
12.11.2019 00:00:00 1,6 0,8 1,5 2,7 4,4 10,7 2 1 6 3 SSW 1011,0 4,8 0 0,1
11.11.2019 23:00:00 1,3 0,7 1,4 2,6 4,5 10,7 4 2 6 3 S 1011,1 5 0 0,0
11.11.2019 22:00:00 0,9 0,1 1,1 2,5 4,5 10,8 4 2 9 5 S 1011,2 4,8 0 0,0
11.11.2019 21:00:00 0,9 -0,1 0,1 2,8 4,6 10,8 4 2 5 3 W 1010,3 5 0 0,0
11.11.2019 20:00:00 1,0 -0,3 1,2 2,9 4,6 10,8 3 2 6 3 W 1010,6 6 0 0,0
11.11.2019 19:00:00 1,0 -0,2 1,2 3,0 4,6 10,8 0 0 6 3 N 1010,4 7 0 0,0
11.11.2019 18:00:00 0,8 -0,5 1,1 3,1 4,7 10,8 5 3 9 5 NE 1010,1 7 0 0,0
11.11.2019 17:00:00 0,9 -0,4 1,2 3,3 4,7 10,8 6 4 11 6 NE 1010,0 7 0 0,0
11.11.2019 16:00:00 1,2 -0,1 1,8 3,6 4,6 10,8 10 6 13 7 E 1009,9 7 0 0,0
11.11.2019 15:00:00 1,6 0,1 2,6 3,8 4,5 10,8 8 4 21 11 E 1010,5 10 0 0,0
11.11.2019 14:00:00 1,7 -0,1 2,9 3,9 4,4 10,9 12 6 20 11 E 1010,7 9 0 0,0
11.11.2019 13:00:00 1,9 0,1 3,3 3,3 4,3 10,9 11 6 22 12 ESE 1011,8 8 0 0,0
11.11.2019 12:00:00 1,3 0,0 2,2 3,0 4,3 10,9 15 8 22 12 E 1013,5 8 0 0,0
11.11.2019 11:00:00 0,3 -0,3 1,3 2,6 4,2 10,9 11 6 18 10 ESE 1014,9 5 0 0,0
11.11.2019 10:00:00 0,0 -0,1 0,7 2,2 4,3 10,9 10 6 16 9 SE 1016,0 3,4 0 0,0
11.11.2019 09:00:00 -0,5 -0,5 0,2 2,0 4,3 10,9 10 5 18 10 SE 1016,3 1,0 0 0,0
11.11.2019 08:00:00 -0,8 -1,0 -0,2 1,9 4,4 10,9 8 4 17 9 ESE 1016,9 1,9 0 0,0
11.11.2019 07:00:00 -0,9 -1,0 -0,4 2,0 4,5 10,9 5 3 14 8 SSE 1016,9 3,2 0 0,0
11.11.2019 06:00:00 -0,7 -0,7 -0,3 2,0 4,5 11,0 8 4 17 9 ESE 1017,0 0,8 0 0,0
11.11.2019 05:00:00 -0,6 -0,6 -0,1 2,2 4,6 11,0 10 5 17 9 SSE 1017,3 1,1 0 0,0
11.11.2019 04:00:00 -0,2 -0,3 0,2 2,4 4,7 11,0 11 6 16 9 ESE 1017,5 1,6 0 0,0
11.11.2019 03:00:00 0,0 -0,6 0,4 2,5 4,7 11,0 9 5 13 7 SSE 1017,7 4,3 0 0,0
11.11.2019 02:00:00 0,2 -0,5 0,6 2,6 4,8 11,0 6 3 13 7 ESE 1018,1 5 0 0,0
11.11.2019 01:00:00 0,5 -0,2 0,8 2,8 4,8 11,0 9 5 14 7 ESE 1018,2 6 0 0,0
11.11.2019 00:00:00 0,9 -0,1 1,1 2,9 4,9 11,0 6 4 14 8 S 1018,1 9 0 0,0
10.11.2019 23:00:00 1,3 0,0 1,5 3,1 4,9 11,0 8 5 13 7 S 1017,8 8 0 0,0
10.11.2019 22:00:00 1,7 0,0 1,7 3,2 4,9 11,1 5 3 13 7 SSE 1017,8 9 0 0,0
10.11.2019 21:00:00 2,0 0,7 2,0 3,3 4,9 11,1 6 3 13 7 ESE 1017,6 7 0 0,0
10.11.2019 20:00:00 1,9 1,2 2,0 3,4 5,0 11,1 3 2 9 5 SE 1017,6 7 0 0,0
10.11.2019 19:00:00 1,8 1,2 2,0 3,4 5,0 11,1 7 4 9 5 WSW 1017,7 7 0 0,0
10.11.2019 18:00:00 1,4 1,0 1,5 3,4 5,0 11,1 0 0 8 4 N 1016,8 5 0 0,0
10.11.2019 17:00:00 2,1 1,2 1,6 4,1 4,9 11,1 7 4 8 5 SW 1015,9 10 0 0,0
10.11.2019 16:00:00 2,4 1,2 3,0 4,4 4,7 11,1 5 3 14 7 S 1015,4 11 0 0,0
10.11.2019 15:00:00 3,0 1,9 3,7 4,6 4,5 11,1 7 4 14 7 SSE 1014,6 9 0 0,0
10.11.2019 14:00:00 2,6 1,6 4,4 4,3 4,3 11,1 8 4 18 10 SE 1014,1 9 0 0,0
10.11.2019 13:00:00 1,6 1,2 3,2 3,4 4,2 11,1 7 4 14 8 ESE 1014,2 8 0 0,0
10.11.2019 12:00:00 0,5 0,5 2,2 2,5 4,2 11,2 7 4 11 6 E 1014,3 7 0 0,0
10.11.2019 11:00:00 -0,1 -0,1 1,0 1,7 4,2 11,2 3 1 12 7 ENE 1014,3 0,2 0 0,0
10.11.2019 10:00:00 -0,7 -0,7 0,1 1,4 4,2 11,2 0 0 0 0 N 1013,8 0,2 0 0,0
10.11.2019 09:00:00 -0,9 -0,9 -0,3 1,2 4,3 11,2 0 0 0 0 N 1013,4 0,2 0 0,0
10.11.2019 08:00:00 -0,8 -0,8 -0,4 1,2 4,4 11,2 0 0 0 0 N 1012,4 0,1 0 0,0
10.11.2019 07:00:00 -0,6 -0,6 -0,4 1,2 4,5 11,2 0 0 0 0 N 1012,0 0,1 0 0,0
10.11.2019 06:00:00 -0,7 -0,7 -0,5 1,2 4,5 11,2 0 0 0 0 N 1011,9 0,1 0 0,0
10.11.2019 05:00:00 -1,0 -1,0 -0,8 1,2 4,6 11,2 0 0 0 0 N 1012,3 0,1 0 0,0
10.11.2019 04:00:00 -0,9 -0,9 -0,9 1,2 4,8 11,2 0 0 0 0 N 1012,0 0,1 0 0,0
10.11.2019 03:00:00 -1,2 -1,2 -1,6 1,3 4,9 11,2 0 0 0 0 N 1012,1 0,1 0 0,0
10.11.2019 02:00:00 -1,1 -1,1 -4,4 1,3 5,0 11,2 0 0 0 0 N 1012,0 1,7 0 0,0
10.11.2019 01:00:00 -1,6 -1,7 -4,1 1,4 5,2 11,2 0 0 3 2 N 1012,1 4,5 0 0,0
10.11.2019 00:00:00 -1,7 -1,9 -4,1 1,5 5,4 11,3 2 1 4 2 W 1012,2 4,5 0 0,0
09.11.2019 23:00:00 -1,2 -1,3 -2,7 1,6 5,6 11,3 2 1 3 1 W 1012,3 4,5 0 0,0
09.11.2019 22:00:00 -0,7 -0,7 -3,2 1,8 5,9 11,3 2 1 3 2 W 1012,7 3,4 0 0,0
09.11.2019 21:00:00 -0,4 -0,4 -3,0 2,1 6,1 11,3 0 0 3 1 N 1013,2 2,3 0 0,0
09.11.2019 20:00:00 0,0 -0,3 -2,4 2,7 6,4 11,3 0 0 4 2 N 1013,6 3,5 0 0,0
09.11.2019 19:00:00 0,9 0,7 -1,9 3,4 6,6 11,3 0 0 3 1 N 1013,4 4,2 0 0,0
09.11.2019 18:00:00 2,0 1,3 -1,0 4,3 6,8 11,3 0 0 4 2 S 1013,1 10 0 0,0
09.11.2019 17:00:00 4,5 2,1 0,3 5,6 6,8 11,3 3 2 6 4 SE 1012,2 19 15 0,0
09.11.2019 16:00:00 6,1 3,5 5,7 6,8 6,6 11,3 7 4 13 7 W 1011,9 21 19 0,0
09.11.2019 15:00:00 6,4 2,5 7,8 7,1 6,4 11,3 7 4 18 10 W 1011,8 25 17 0,0
09.11.2019 14:00:00 6,1 3,2 7,3 6,4 6,3 11,3 16 9 22 12 W 1012,1 21 0 0,0
09.11.2019 13:00:00 5,6 3,0 6,5 6,1 6,2 11,3 14 8 27 14 W 1012,3 17 0 0,0
09.11.2019 12:00:00 5,1 3,0 6,0 5,6 6,1 11,4 15 8 27 15 WSW 1012,4 16 0 0,0
09.11.2019 11:00:00 4,7 2,9 5,6 5,2 6,0 11,4 18 10 26 14 WSW 1012,4 26 0 0,0
09.11.2019 10:00:00 3,8 2,3 4,0 4,4 6,0 11,4 14 8 21 12 WSW 1012,3 17 0 0,0
09.11.2019 09:00:00 3,6 2,2 3,4 4,2 6,1 11,4 14 8 24 13 WSW 1012,3 13 0 0,0
09.11.2019 08:00:00 3,5 2,0 3,3 4,0 6,1 11,4 17 9 29 15 WSW 1011,7 16 0 0,0
09.11.2019 07:00:00 3,4 1,8 3,3 4,0 6,2 11,4 16 9 24 13 W 1011,1 16 0 0,0
09.11.2019 06:00:00 3,2 1,6 3,1 4,0 6,2 11,4 18 10 27 14 W 1010,2 13 0 0,0
09.11.2019 05:00:00 3,1 1,2 3,0 4,0 6,3 11,4 19 10 31 17 W 1009,7 14 0 0,0
09.11.2019 04:00:00 3,2 1,5 3,0 4,1 6,4 11,4 18 10 25 13 W 1009,3 14 0 0,0
09.11.2019 03:00:00 3,2 1,8 3,0 4,0 6,5 11,4 16 8 24 13 W 1009,0 11 0 0,0
09.11.2019 02:00:00 3,1 1,6 2,5 3,9 6,6 11,4 16 8 29 16 WSW 1008,9 13 0 0,0
09.11.2019 01:00:00 3,4 1,8 2,8 4,3 6,8 11,4 17 9 36 19 WSW 1008,7 14 0 0,0
09.11.2019 00:00:00 3,6 2,0 3,4 4,5 6,9 11,5 19 10 35 19 WSW 1008,5 15 0 0,0
08.11.2019 23:00:00 3,6 2,1 3,4 4,6 7,0 11,5 21 11 29 16 WSW 1007,7 15 0 0,0
08.11.2019 22:00:00 3,6 2,1 3,1 4,9 7,2 11,5 21 12 34 19 WSW 1007,3 16 0 0,0
08.11.2019 21:00:00 3,9 2,1 3,0 5,3 7,3 11,5 16 9 32 18 W 1006,6 22 0 0,0
08.11.2019 20:00:00 4,8 2,8 4,5 6,1 7,3 11,5 21 11 32 17 WSW 1006,4 31 0 0,0
08.11.2019 19:00:00 5,9 4,5 5,7 6,5 7,3 11,5 16 8 23 13 WSW 1005,0 15 0 0,0
08.11.2019 18:00:00 5,7 5,0 5,6 6,6 7,3 11,5 8 5 14 8 W 1004,7 4,5 0 0,0
08.11.2019 17:00:00 5,8 5,0 5,8 6,9 7,3 11,5 6 4 12 7 W 1004,0 8 0 0,0
08.11.2019 16:00:00 5,8 4,1 5,9 7,1 7,2 11,5 6 4 11 6 WSW 1003,4 11 0 0,0
08.11.2019 15:00:00 5,8 4,2 6,2 7,5 7,1 11,5 5 3 10 5 SE 1002,5 14 0 0,0
08.11.2019 14:00:00 5,8 4,5 6,6 7,3 7,0 11,5 6 4 14 8 SE 1002,6 11 0 0,0
08.11.2019 13:00:00 5,5 4,9 6,6 6,4 6,9 11,5 7 4 11 6 NE 1002,9 9 0 1,8
08.11.2019 12:00:00 4,9 4,4 5,0 6,0 6,9 11,6 10 5 15 8 E 1003,5 3,6 0 1,3
08.11.2019 11:00:00 5,3 4,4 5,3 6,0 6,8 11,6 13 7 19 10 E 1003,5 7 0 0,0
08.11.2019 10:00:00 5,4 4,2 5,5 6,0 6,8 11,6 10 5 21 11 E 1003,1 7 0 0,0
08.11.2019 09:00:00 5,3 4,4 5,3 5,5 6,8 11,6 11 6 18 10 ENE 1003,1 5 0 0,0
08.11.2019 08:00:00 4,8 4,4 4,6 5,3 6,8 11,6 6 3 16 9 ENE 1004,2 3,4 0 0,0
08.11.2019 07:00:00 4,6 4,6 4,7 5,2 6,8 11,6 11 6 18 10 ENE 1004,2 2,6 0 0,0
08.11.2019 06:00:00 4,4 4,4 4,5 5,0 6,9 11,6 10 5 16 9 N 1004,1 0,3 0 0,0
08.11.2019 05:00:00 4,2 4,2 4,2 4,6 7,0 11,6 10 5 16 9 E 1005,7 1,2 0 0,0
08.11.2019 04:00:00 5,3 4,1 3,2 4,9 7,1 11,6 9 5 18 10 NNW 1005,4 14 0 0,0
08.11.2019 03:00:00 5,6 4,2 3,7 5,4 7,2 11,6 9 5 13 7 NNW 1006,2 20 0 0,0
08.11.2019 02:00:00 6,2 4,4 4,7 5,6 7,3 11,6 7 4 12 7 NW 1006,8 28 0 0,0
08.11.2019 01:00:00 4,9 4,6 4,3 5,7 7,4 11,7 3 2 5 3 W 1007,5 4,5 0 0,0
08.11.2019 00:00:00 5,0 4,7 4,0 5,7 7,5 11,7 2 1 6 3 N 1007,4 6 0 0,0
07.11.2019 23:00:00 4,8 4,5 4,2 5,8 7,6 11,7 2 1 5 3 W 1007,0 8 0 0,0
07.11.2019 22:00:00 4,7 4,3 3,6 5,9 7,7 11,7 2 1 5 3 W 1007,2 6 0 0,0
07.11.2019 21:00:00 5,5 5,0 4,3 6,3 7,8 11,7 2 1 4 2 W 1006,7 9 0 0,0
07.11.2019 20:00:00 5,4 5,0 4,8 6,4 7,9 11,7 2 1 6 4 WSW 1006,6 15 0 0,0
07.11.2019 19:00:00 6,3 5,3 3,0 7,0 8,0 11,7 0 0 4 2 N 1006,5 30 0 0,0
07.11.2019 18:00:00 6,9 5,8 5,3 7,7 8,0 11,7 2 1 6 3 N 1006,0 30 0 0,0
07.11.2019 17:00:00 7,8 5,4 6,3 8,5 7,9 11,7 3 2 10 6 ENE 1005,1 34 0 0,0
07.11.2019 16:00:00 9,3 5,6 8,7 9,4 7,7 11,7 3 2 11 6 ESE 1004,7 40 1 0,0
07.11.2019 15:00:00 9,2 5,4 9,2 9,7 7,4 11,7 9 5 19 11 E 1004,2 42 21 0,0
07.11.2019 14:00:00 9,4 4,4 10,2 9,9 7,0 11,7 10 6 27 15 E 1004,0 51 43 0,0
07.11.2019 13:00:00 9,5 3,9 11,8 9,1 6,6 11,7 16 9 29 15 E 1003,5 24 60 0,0
07.11.2019 12:00:00 9,3 4,4 11,8 8,5 6,2 11,8 18 10 29 16 ESE 1003,6 21 60 0,0
07.11.2019 11:00:00 8,6 4,1 10,9 6,9 6,0 11,8 15 8 21 12 ESE 1004,3 25 60 0,0
07.11.2019 10:00:00 5,9 3,5 7,7 4,9 5,9 11,8 11 6 16 8 ESE 1005,2 20 60 0,0
07.11.2019 09:00:00 3,5 2,5 3,7 3,0 6,1 11,8 6 4 8 5 E 1006,2 13 60 0,0
07.11.2019 08:00:00 0,1 0,0 -0,4 2,0 6,3 11,8 2 1 4 2 W 1007,0 3,8 26 0,0
07.11.2019 07:00:00 0,4 0,4 -2,0 2,3 6,5 11,8 0 0 3 2 N 1006,6 1,1 0 0,0
07.11.2019 06:00:00 1,1 1,1 -1,1 2,7 6,8 11,8 0 0 6 4 N 1006,7 3,3 0 0,0
07.11.2019 05:00:00 1,9 1,7 -1,0 3,2 7,0 11,8 6 3 10 5 SE 1006,8 13 0 0,0
07.11.2019 04:00:00 2,3 2,1 -1,1 3,7 7,2 11,8 7 4 10 5 ESE 1007,1 7 0 0,0
07.11.2019 03:00:00 2,7 2,6 -0,3 4,4 7,4 11,8 4 2 6 4 E 1007,2 0,4 0 0,0
07.11.2019 02:00:00 3,9 3,3 1,5 5,3 7,5 11,8 0 0 12 6 N 1007,0 9 0 0,0
07.11.2019 01:00:00 5,9 4,2 5,1 5,9 7,5 11,8 8 4 10 6 WSW 1007,0 30 0 0,0
07.11.2019 00:00:00 5,9 4,3 5,3 5,9 7,6 11,8 7 4 10 6 SW 1007,3 29 0 0,0
06.11.2019 23:00:00 6,0 4,3 5,1 5,8 7,7 11,9 9 5 14 8 WSW 1007,5 34 0 0,0
06.11.2019 22:00:00 6,7 5,0 5,5 6,5 7,8 11,9 10 6 14 7 SW 1007,5 31 0 0,0
06.11.2019 21:00:00 6,9 5,3 6,2 6,6 7,8 11,9 11 6 16 8 WSW 1007,3 30 0 0,0
06.11.2019 20:00:00 6,6 5,2 5,9 6,7 7,9 11,9 4 2 11 6 SW 1007,0 26 0 0,0
06.11.2019 19:00:00 6,7 5,0 6,1 6,8 7,9 11,9 8 4 11 6 SW 1006,9 42 0 0,0
06.11.2019 18:00:00 6,8 5,5 5,3 7,2 7,9 11,9 7 4 10 5 W 1006,4 48 0 0,0
06.11.2019 17:00:00 6,9 5,4 5,8 7,7 7,9 11,9 5 3 19 10 WSW 1005,9 58 7 0,0
06.11.2019 16:00:00 8,2 5,7 7,7 8,3 7,7 11,9 14 7 19 11 W 1005,3 59 0 0,0

tt = temperature
td = dewpoint
tt 5cm = temperature 5cm
tt -5cm = temperature -5cm
tt -20cm = temperature -20cm
tt -100cm = temperature -100cm
ff = wind speed
fx = gusts
dd = wind direction
ppp = reduced air pressure
vv = visibility
sd = sunshine duration
rr = precipitation

Next stations